Zurück zum Katalog

ELECTRON KICK STAGE R/B

AktivVLEO
NORAD 69178·ROCKET BODY·🇺🇸 United States

Gestartet May 22, 2026 von Rocket Lab Launch Complex 1

Loading…

Nächste Überflüge (nächste 24 Stunden)

TLE

AktuellSource: Space-Track

Epoche: Sep 14, 2026, 13:59 UTC

1 69178U 26112B   26257.58310827  .00003866  00000-0  29930-3 0  9998
2 69178  44.9063  81.9684 0025994 194.5362 165.4764 15.02848494 17325

Verfolge ELECTRON KICK STAGE R/B in Echtzeit mit AllMySat

Download on the App Store